| time (UTC) | temp C | wind direction | speed KPH | gust KPH | rain 1hr cm | rain 24hr cm | rain mn cm | humidity % | barometer mb |
| 20260904085708 | 27 | 40 | 0.0 | 1.6 | 0.00 | 0.00 | 0.00 | 63 | 1015.0 |
| 20260904085208 | 27 | 46 | 1.6 | 3.2 | 0.00 | 0.00 | 0.00 | 63 | 1015.1 |
| 20260904084702 | 27 | 345 | 1.6 | 1.6 | 0.00 | 0.00 | 0.00 | 63 | 1014.9 |
| 20260904084159 | 27 | 21 | 1.6 | 1.6 | 0.00 | 0.00 | 0.00 | 63 | 1015.0 |
| 20260904083655 | 27 | 31 | 1.6 | 1.6 | 0.00 | 0.00 | 0.00 | 63 | 1014.8 |
| 20260904083151 | 27 | 60 | 1.6 | 3.2 | 0.00 | 0.00 | 0.00 | 63 | 1014.9 |
| 20260904082645 | 27 | 99 | 3.2 | 3.2 | 0.00 | 0.00 | 0.00 | 62 | 1014.9 |
| 20260904082141 | 27 | 78 | 3.2 | 4.8 | 0.00 | 0.00 | 0.00 | 62 | 1015.1 |
| 20260904081636 | 27 | 7 | 1.6 | 1.6 | 0.00 | 0.00 | 0.00 | 62 | 1014.8 |
| 20260904081131 | 27 | 13 | 0.0 | 1.6 | 0.00 | 0.00 | 0.00 | 61 | 1014.7 |
| 20260904080627 | 27 | 11 | 1.6 | 3.2 | 0.00 | 0.00 | 0.00 | 61 | 1014.8 |
| 20260904080123 | 27 | 148 | 4.8 | 4.8 | 0.00 | 0.00 | 0.00 | 61 | 1014.7 |
| 20260904075619 | 27 | 170 | 4.8 | 4.8 | 0.00 | 0.00 | 0.00 | 61 | 1014.7 |
| 20260904075119 | 27 | 166 | 4.8 | 4.8 | 0.00 | 0.00 | 0.00 | 61 | 1014.7 |
| 20260904074618 | 27 | 24 | 0.0 | 1.6 | 0.00 | 0.00 | 0.00 | 60 | 1014.8 |
| 20260904074113 | 27 | 232 | 3.2 | 3.2 | 0.00 | 0.00 | 0.00 | 60 | 1014.8 |
| 20260904073608 | 28 | 153 | 3.2 | 3.2 | 0.00 | 0.00 | 0.00 | 60 | 1014.6 |
| 20260904073104 | 28 | 23 | 1.6 | 1.6 | 0.00 | 0.00 | 0.00 | 60 | 1014.5 |
| 20260904072600 | 28 | 164 | 4.8 | 6.4 | 0.00 | 0.00 | 0.00 | 59 | 1014.6 |
| 20260904072055 | 28 | 140 | 3.2 | 4.8 | 0.00 | 0.00 | 0.00 | 59 | 1014.6 |
| 20260904071550 | 28 | 345 | 3.2 | 4.8 | 0.00 | 0.00 | 0.00 | 59 | 1014.8 |
| 20260904071045 | 28 | 88 | 1.6 | 1.6 | 0.00 | 0.00 | 0.00 | 59 | 1014.8 |
| 20260904070544 | 28 | 181 | 6.4 | 6.4 | 0.00 | 0.00 | 0.00 | 59 | 1014.6 |
| 20260904070039 | 28 | 126 | 4.8 | 4.8 | 0.00 | 0.00 | 0.00 | 59 | 1014.8 |
| 20260904065534 | 28 | 66 | 4.8 | 6.4 | 0.00 | 0.00 | 0.00 | 59 | 1014.6 |
| 20260904065031 | 28 | 169 | 6.4 | 9.7 | 0.00 | 0.00 | 0.00 | 59 | 1014.6 |
| 20260904064527 | 28 | 47 | 1.6 | 1.6 | 0.00 | 0.00 | 0.00 | 59 | 1014.6 |
| 20260904064026 | 28 | 45 | 3.2 | 3.2 | 0.00 | 0.00 | 0.00 | 59 | 1014.6 |
| 20260904063523 | 28 | 58 | 3.2 | 3.2 | 0.00 | 0.00 | 0.00 | 59 | 1014.7 |
| 20260904063023 | 28 | 102 | 1.6 | 1.6 | 0.00 | 0.00 | 0.00 | 59 | 1014.8 |
| 20260904062520 | 28 | 94 | 4.8 | 4.8 | 0.00 | 0.00 | 0.00 | 59 | 1014.6 |
| 20260904062015 | 28 | 13 | 1.6 | 1.6 | 0.00 | 0.00 | 0.00 | 59 | 1014.6 |
| 20260904061511 | 28 | 26 | 3.2 | 4.8 | 0.00 | 0.00 | 0.00 | 59 | 1014.4 |
| 20260904061007 | 28 | 79 | 3.2 | 3.2 | 0.00 | 0.00 | 0.00 | 59 | 1014.8 |
| 20260904060503 | 28 | 161 | 6.4 | 6.4 | 0.00 | 0.00 | 0.00 | 58 | 1014.7 |
| 20260904055958 | 28 | 158 | 6.4 | 6.4 | 0.00 | 0.00 | 0.00 | 58 | 1014.7 |
| 20260904055454 | 28 | 146 | 3.2 | 4.8 | 0.00 | 0.00 | 0.00 | 58 | 1014.5 |
| 20260904054949 | 28 | 98 | 6.4 | 6.4 | 0.00 | 0.00 | 0.00 | 57 | 1014.6 |
| 20260904054444 | 28 | 43 | 1.6 | 1.6 | 0.00 | 0.00 | 0.00 | 57 | 1014.5 |
| 20260904053940 | 28 | 175 | 3.2 | 4.8 | 0.00 | 0.00 | 0.00 | 57 | 1014.6 |
| 20260904053439 | 28 | 186 | 1.6 | 3.2 | 0.00 | 0.00 | 0.00 | 57 | 1014.4 |
| 20260904052936 | 28 | 39 | 1.6 | 1.6 | 0.00 | 0.00 | 0.00 | 56 | 1014.4 |
| 20260904052432 | 29 | 39 | 3.2 | 3.2 | 0.00 | 0.00 | 0.00 | 56 | 1014.4 |
| 20260904051927 | 29 | 115 | 4.8 | 4.8 | 0.00 | 0.00 | 0.00 | 56 | 1014.6 |
| 20260904051424 | 29 | 23 | 3.2 | 4.8 | 0.00 | 0.00 | 0.00 | 56 | 1014.5 |
| 20260904050918 | 29 | 177 | 3.2 | 3.2 | 0.00 | 0.00 | 0.00 | 55 | 1014.6 |
| 20260904050414 | 29 | 157 | 4.8 | 4.8 | 0.00 | 0.00 | 0.00 | 55 | 1014.7 |
| 20260904045914 | 29 | 165 | 6.4 | 9.7 | 0.00 | 0.00 | 0.00 | 55 | 1014.5 |
| 20260904045409 | 29 | 44 | 3.2 | 4.8 | 0.00 | 0.00 | 0.00 | 55 | 1014.4 |
| 20260904044909 | 30 | 56 | 3.2 | 3.2 | 0.00 | 0.00 | 0.00 | 54 | 1014.5 |
| 20260904044406 | 30 | 142 | 3.2 | 4.8 | 0.00 | 0.00 | 0.00 | 54 | 1014.2 |
| 20260904043901 | 30 | 40 | 3.2 | 3.2 | 0.00 | 0.00 | 0.00 | 54 | 1014.4 |
| 20260904043358 | 30 | 18 | 0.0 | 0.0 | 0.00 | 0.00 | 0.00 | 53 | 1014.5 |
| 20260904042853 | 30 | 46 | 1.6 | 1.6 | 0.00 | 0.00 | 0.00 | 53 | 1014.4 |
| 20260904042349 | 30 | 139 | 4.8 | 4.8 | 0.00 | 0.00 | 0.00 | 52 | 1014.4 |
| 20260904041843 | 30 | 28 | 0.0 | 1.6 | 0.00 | 0.00 | 0.00 | 52 | 1014.4 |
| 20260904041339 | 30 | 32 | 1.6 | 1.6 | 0.00 | 0.00 | 0.00 | 52 | 1014.2 |
| 20260904040835 | 30 | 81 | 3.2 | 3.2 | 0.00 | 0.00 | 0.00 | 51 | 1014.2 |
| 20260904040330 | 30 | 20 | 1.6 | 1.6 | 0.00 | 0.00 | 0.00 | 51 | 1014.2 |
| 20260904035826 | 30 | 28 | 3.2 | 3.2 | 0.00 | 0.00 | 0.00 | 51 | 1014.1 |
| 20260904035323 | 31 | 37 | 1.6 | 3.2 | 0.00 | 0.00 | 0.00 | 51 | 1014.1 |
| 20260904034821 | 31 | 174 | 3.2 | 3.2 | 0.00 | 0.00 | 0.00 | 50 | 1014.1 |
| 20260904034317 | 31 | 138 | 3.2 | 4.8 | 0.00 | 0.00 | 0.00 | 50 | 1014.4 |
| 20260904033813 | 31 | 32 | 0.0 | 1.6 | 0.00 | 0.00 | 0.00 | 50 | 1014.4 |
| 20260904033309 | 31 | 69 | 1.6 | 3.2 | 0.00 | 0.00 | 0.00 | 50 | 1014.5 |
| 20260904032805 | 31 | 137 | 6.4 | 6.4 | 0.00 | 0.00 | 0.00 | 49 | 1014.1 |
| 20260904032306 | 31 | 145 | 3.2 | 3.2 | 0.00 | 0.00 | 0.00 | 50 | 1014.2 |
| 20260904031758 | 31 | 47 | 1.6 | 1.6 | 0.00 | 0.00 | 0.00 | 50 | 1014.4 |
| 20260904031254 | 31 | 64 | 1.6 | 3.2 | 0.00 | 0.00 | 0.00 | 50 | 1014.2 |
| 20260904030750 | 31 | 42 | 0.0 | 1.6 | 0.00 | 0.00 | 0.00 | 50 | 1014.2 |
| 20260904030245 | 31 | 83 | 0.0 | 1.6 | 0.00 | 0.00 | 0.00 | 49 | 1014.4 |
| 20260904025741 | 31 | 27 | 0.0 | 0.0 | 0.00 | 0.00 | 0.00 | 49 | 1014.1 |
| 20260904025236 | 31 | 28 | 1.6 | 1.6 | 0.00 | 0.00 | 0.00 | 49 | 1014.0 |
| 20260904024732 | 31 | 30 | 0.0 | 0.0 | 0.00 | 0.00 | 0.00 | 49 | 1013.7 |
| 20260904024227 | 31 | 34 | 1.6 | 1.6 | 0.00 | 0.00 | 0.00 | 49 | 1014.0 |
| 20260904023723 | 31 | 40 | 3.2 | 3.2 | 0.00 | 0.00 | 0.00 | 48 | 1013.9 |
| 20260904023219 | 32 | 38 | 0.0 | 1.6 | 0.00 | 0.00 | 0.00 | 48 | 1013.8 |
| 20260904022718 | 32 | 60 | 1.6 | 1.6 | 0.00 | 0.00 | 0.00 | 47 | 1013.8 |
| 20260904022216 | 32 | 42 | 1.6 | 3.2 | 0.00 | 0.00 | 0.00 | 47 | 1013.5 |
| 20260904021711 | 32 | 46 | 0.0 | 0.0 | 0.00 | 0.00 | 0.00 | 47 | 1013.5 |
| 20260904021206 | 32 | 337 | 1.6 | 1.6 | 0.00 | 0.00 | 0.00 | 46 | 1013.3 |
| 20260904020702 | 32 | 213 | 3.2 | 4.8 | 0.00 | 0.00 | 0.00 | 46 | 1013.2 |
| 20260904020201 | 32 | 165 | 3.2 | 3.2 | 0.00 | 0.00 | 0.00 | 46 | 1013.3 |
| 20260904015700 | 32 | 20 | 0.0 | 1.6 | 0.00 | 0.00 | 0.00 | 46 | 1013.4 |
| 20260904015201 | 32 | 41 | 3.2 | 3.2 | 0.00 | 0.00 | 0.00 | 46 | 1013.2 |
| 20260904014659 | 32 | 12 | 0.0 | 1.6 | 0.00 | 0.00 | 0.00 | 46 | 1013.3 |
| 20260904014154 | 32 | 325 | 0.0 | 1.6 | 0.00 | 0.00 | 0.00 | 45 | 1013.1 |
| 20260904013652 | 33 | 4 | 0.0 | 1.6 | 0.00 | 0.00 | 0.00 | 45 | 1012.9 |
| 20260904013147 | 33 | 148 | 3.2 | 4.8 | 0.00 | 0.00 | 0.00 | 44 | 1012.8 |
| 20260904012643 | 33 | 4 | 1.6 | 1.6 | 0.00 | 0.00 | 0.00 | 44 | 1012.8 |
| 20260904012141 | 33 | 32 | 1.6 | 3.2 | 0.00 | 0.00 | 0.00 | 44 | 1012.8 |
| 20260904011640 | 33 | 327 | 0.0 | 1.6 | 0.00 | 0.00 | 0.00 | 43 | 1012.8 |
| 20260904011137 | 33 | 110 | 4.8 | 4.8 | 0.00 | 0.00 | 0.00 | 43 | 1012.7 |
| 20260904010632 | 33 | 181 | 3.2 | 4.8 | 0.00 | 0.00 | 0.00 | 42 | 1012.6 |
| 20260904010129 | 34 | 31 | 0.0 | 1.6 | 0.00 | 0.00 | 0.00 | 42 | 1012.6 |
| 20260904005624 | 34 | 126 | 3.2 | 4.8 | 0.00 | 0.00 | 0.00 | 41 | 1012.7 |
| 20260904005119 | 34 | 203 | 6.4 | 6.4 | 0.00 | 0.00 | 0.00 | 41 | 1012.5 |
| 20260904004615 | 35 | 81 | 4.8 | 4.8 | 0.00 | 0.00 | 0.00 | 41 | 1012.6 |
| 20260904004114 | 35 | 343 | 1.6 | 1.6 | 0.00 | 0.00 | 0.00 | 40 | 1012.5 |
| 20260904003610 | 35 | 125 | 6.4 | 6.4 | 0.00 | 0.00 | 0.00 | 40 | 1012.5 |
| 20260904003106 | 35 | 140 | 3.2 | 4.8 | 0.00 | 0.00 | 0.00 | 40 | 1012.4 |
| 20260904002602 | 35 | 201 | 3.2 | 4.8 | 0.00 | 0.00 | 0.00 | 39 | 1012.4 |
| 20260904002102 | 35 | 42 | 3.2 | 4.8 | 0.00 | 0.00 | 0.00 | 39 | 1012.6 |
| 20260904001557 | 35 | 97 | 6.4 | 6.4 | 0.00 | 0.00 | 0.00 | 39 | 1012.4 |
| 20260904001056 | 35 | 180 | 1.6 | 3.2 | 0.00 | 0.00 | 0.00 | 38 | 1012.4 |
| 20260904000551 | 36 | 205 | 8.0 | 9.7 | 0.00 | 0.00 | 0.00 | 38 | 1012.4 |
| 20260904000047 | 36 | 211 | 8.0 | 9.7 | 0.00 | 0.00 | 0.00 | 37 | 1012.4 |
| 20260903235542 | 36 | 50 | 4.8 | 4.8 | 0.00 | 0.00 | 0.00 | 37 | 1012.3 |
| 20260903235037 | 36 | 199 | 3.2 | 4.8 | 0.00 | 0.00 | 0.00 | 36 | 1012.3 |
| 20260903234533 | 36 | 37 | 1.6 | 3.2 | 0.00 | 0.00 | 0.00 | 37 | 1012.3 |
| 20260903234028 | 36 | 141 | 6.4 | 6.4 | 0.00 | 0.00 | 0.00 | 37 | 1012.3 |
| 20260903233524 | 36 | 252 | 6.4 | 6.4 | 0.00 | 0.00 | 0.00 | 36 | 1012.4 |
| 20260903233020 | 36 | 109 | 6.4 | 9.7 | 0.00 | 0.00 | 0.00 | 36 | 1012.4 |
| 20260903232514 | 37 | 186 | 12.9 | 14.5 | 0.00 | 0.00 | 0.00 | 35 | 1012.4 |
| 20260903232009 | 37 | 171 | 6.4 | 9.7 | 0.00 | 0.00 | 0.00 | 35 | 1012.2 |
| 20260903231503 | 37 | 132 | 11.3 | 16.1 | 0.00 | 0.00 | 0.00 | 35 | 1012.3 |
| 20260903230958 | 37 | 184 | 8.0 | 11.3 | 0.00 | 0.00 | 0.00 | 34 | 1012.3 |
| 20260903230454 | 38 | 174 | 4.8 | 6.4 | 0.00 | 0.00 | 0.00 | 34 | 1012.1 |
| 20260903225951 | 37 | 222 | 3.2 | 4.8 | 0.00 | 0.00 | 0.00 | 34 | 1012.2 |
| 20260903225445 | 37 | 239 | 6.4 | 6.4 | 0.00 | 0.00 | 0.00 | 34 | 1012.2 |
| 20260903224942 | 37 | 249 | 6.4 | 6.4 | 0.00 | 0.00 | 0.00 | 34 | 1012.2 |
| 20260903224437 | 38 | 146 | 4.8 | 4.8 | 0.00 | 0.00 | 0.00 | 34 | 1012.2 |
| 20260903223933 | 38 | 106 | 4.8 | 6.4 | 0.00 | 0.00 | 0.00 | 34 | 1012.0 |
| 20260903223432 | 38 | 358 | 3.2 | 3.2 | 0.00 | 0.00 | 0.00 | 33 | 1012.1 |
| 20260903222931 | 38 | 314 | 3.2 | 4.8 | 0.00 | 0.00 | 0.00 | 34 | 1012.2 |
| 20260903222427 | 37 | 161 | 3.2 | 4.8 | 0.00 | 0.00 | 0.00 | 35 | 1012.0 |
| 20260903221921 | 38 | 218 | 4.8 | 6.4 | 0.00 | 0.00 | 0.00 | 33 | 1012.1 |
| 20260903221420 | 38 | 177 | 4.8 | 4.8 | 0.00 | 0.00 | 0.00 | 33 | 1012.1 |
| 20260903220918 | 37 | 107 | 9.7 | 11.3 | 0.00 | 0.00 | 0.00 | 34 | 1012.0 |
| 20260903220412 | 37 | 320 | 3.2 | 6.4 | 0.00 | 0.00 | 0.00 | 34 | 1012.1 |
| 20260903215909 | 37 | 204 | 8.0 | 12.9 | 0.00 | 0.00 | 0.00 | 34 | 1012.3 |
| 20260903215407 | 38 | 190 | 11.3 | 14.5 | 0.00 | 0.00 | 0.00 | 33 | 1012.3 |
| 20260903214905 | 38 | 210 | 6.4 | 11.3 | 0.00 | 0.00 | 0.00 | 33 | 1012.4 |
| 20260903214401 | 37 | 220 | 4.8 | 6.4 | 0.00 | 0.00 | 0.00 | 33 | 1012.4 |
| 20260903213901 | 37 | 116 | 9.7 | 12.9 | 0.00 | 0.00 | 0.00 | 33 | 1012.5 |
| 20260903213356 | 38 | 201 | 11.3 | 14.5 | 0.00 | 0.00 | 0.00 | 34 | 1012.6 |
| 20260903212851 | 37 | 336 | 3.2 | 4.8 | 0.00 | 0.00 | 0.00 | 34 | 1012.7 |
| 20260903212348 | 37 | 74 | 3.2 | 4.8 | 0.00 | 0.00 | 0.00 | 34 | 1012.8 |
| 20260903211847 | 38 | 52 | 4.8 | 4.8 | 0.00 | 0.00 | 0.00 | 34 | 1012.8 |
| 20260903211343 | 37 | 227 | 11.3 | 14.5 | 0.00 | 0.00 | 0.00 | 33 | 1012.8 |
| 20260903210839 | 37 | 216 | 4.8 | 4.8 | 0.00 | 0.00 | 0.00 | 34 | 1012.7 |
| 20260903210339 | 37 | 209 | 9.7 | 11.3 | 0.00 | 0.00 | 0.00 | 34 | 1012.8 |
| 20260903205838 | 38 | 216 | 9.7 | 14.5 | 0.00 | 0.00 | 0.00 | 33 | 1012.8 |
| 20260903205338 | 38 | 80 | 3.2 | 4.8 | 0.00 | 0.00 | 0.00 | 33 | 1013.0 |
| 20260903204833 | 38 | 207 | 6.4 | 9.7 | 0.00 | 0.00 | 0.00 | 34 | 1012.6 |
| 20260903204330 | 38 | 141 | 4.8 | 6.4 | 0.00 | 0.00 | 0.00 | 33 | 1013.1 |
| 20260903203825 | 37 | 214 | 4.8 | 6.4 | 0.00 | 0.00 | 0.00 | 34 | 1013.1 |
| 20260903203321 | 37 | 202 | 9.7 | 11.3 | 0.00 | 0.00 | 0.00 | 33 | 1013.2 |
| 20260903202820 | 37 | 234 | 6.4 | 9.7 | 0.00 | 0.00 | 0.00 | 35 | 1013.1 |
| 20260903202316 | 37 | 199 | 12.9 | 14.5 | 0.00 | 0.00 | 0.00 | 35 | 1013.2 |
| 20260903201815 | 38 | 229 | 3.2 | 3.2 | 0.00 | 0.00 | 0.00 | 33 | 1013.2 |
| 20260903201311 | 37 | 107 | 4.8 | 4.8 | 0.00 | 0.00 | 0.00 | 35 | 1013.2 |
| 20260903200809 | 37 | 206 | 8.0 | 11.3 | 0.00 | 0.00 | 0.00 | 34 | 1013.4 |
| 20260903200305 | 37 | 102 | 4.8 | 9.7 | 0.00 | 0.00 | 0.00 | 36 | 1013.3 |
| 20260903195800 | 37 | 176 | 6.4 | 9.7 | 0.00 | 0.00 | 0.00 | 36 | 1013.3 |
| 20260903195256 | 37 | 181 | 8.0 | 11.3 | 0.00 | 0.00 | 0.00 | 36 | 1013.5 |
| 20260903194751 | 37 | 231 | 6.4 | 6.4 | 0.00 | 0.00 | 0.00 | 36 | 1013.4 |
| 20260903194247 | 36 | 106 | 8.0 | 11.3 | 0.00 | 0.00 | 0.00 | 35 | 1013.5 |
| 20260903193743 | 37 | 111 | 8.0 | 14.5 | 0.00 | 0.00 | 0.00 | 37 | 1013.5 |
| 20260903193238 | 37 | 194 | 4.8 | 6.4 | 0.00 | 0.00 | 0.00 | 36 | 1013.8 |
| 20260903192734 | 36 | 209 | 3.2 | 4.8 | 0.00 | 0.00 | 0.00 | 38 | 1013.8 |
| 20260903192229 | 36 | 179 | 14.5 | 16.1 | 0.00 | 0.00 | 0.00 | 37 | 1013.9 |
| 20260903191726 | 37 | 171 | 11.3 | 14.5 | 0.00 | 0.00 | 0.00 | 37 | 1013.9 |
| 20260903191221 | 36 | 228 | 9.7 | 11.3 | 0.00 | 0.00 | 0.00 | 38 | 1014.0 |
| 20260903190715 | 36 | 139 | 9.7 | 16.1 | 0.00 | 0.00 | 0.00 | 38 | 1014.1 |
| 20260903190215 | 36 | 180 | 9.7 | 12.9 | 0.00 | 0.00 | 0.00 | 38 | 1014.0 |
| 20260903185709 | 36 | 111 | 9.7 | 12.9 | 0.00 | 0.00 | 0.00 | 37 | 1014.4 |
| 20260903185204 | 36 | 33 | 1.6 | 1.6 | 0.00 | 0.00 | 0.00 | 38 | 1014.1 |
| 20260903184701 | 36 | 200 | 14.5 | 20.9 | 0.00 | 0.00 | 0.00 | 37 | 1014.4 |
| 20260903184157 | 36 | 174 | 9.7 | 14.5 | 0.00 | 0.00 | 0.00 | 39 | 1014.1 |
| 20260903183656 | 36 | 207 | 12.9 | 16.1 | 0.00 | 0.00 | 0.00 | 39 | 1014.5 |
| 20260903183151 | 35 | 245 | 9.7 | 12.9 | 0.00 | 0.00 | 0.00 | 40 | 1014.8 |
| 20260903182650 | 35 | 189 | 9.7 | 14.5 | 0.00 | 0.00 | 0.00 | 40 | 1014.7 |
| 20260903182146 | 35 | 201 | 11.3 | 16.1 | 0.00 | 0.00 | 0.00 | 40 | 1014.7 |
| 20260903181644 | 35 | 209 | 4.8 | 6.4 | 0.00 | 0.00 | 0.00 | 41 | 1014.8 |
| 20260903181138 | 35 | 172 | 6.4 | 9.7 | 0.00 | 0.00 | 0.00 | 41 | 1014.7 |
| 20260903180634 | 36 | 174 | 6.4 | 9.7 | 0.00 | 0.00 | 0.00 | 41 | 1014.9 |
| 20260903180128 | 35 | 237 | 8.0 | 14.5 | 0.00 | 0.00 | 0.00 | 41 | 1014.9 |
| 20260903175627 | 35 | 115 | 3.2 | 6.4 | 0.00 | 0.00 | 0.00 | 41 | 1015.0 |
| 20260903175126 | 35 | 116 | 8.0 | 9.7 | 0.00 | 0.00 | 0.00 | 41 | 1015.1 |
| 20260903174621 | 35 | 203 | 6.4 | 9.7 | 0.00 | 0.00 | 0.00 | 42 | 1015.3 |
| 20260903174116 | 35 | 224 | 9.7 | 16.1 | 0.00 | 0.00 | 0.00 | 42 | 1015.4 |
| 20260903173611 | 35 | 336 | 6.4 | 9.7 | 0.00 | 0.00 | 0.00 | 42 | 1015.5 |
| 20260903173108 | 35 | 283 | 3.2 | 4.8 | 0.00 | 0.00 | 0.00 | 42 | 1015.6 |
| 20260903172603 | 35 | 196 | 8.0 | 12.9 | 0.00 | 0.00 | 0.00 | 42 | 1015.6 |
| 20260903172058 | 35 | 90 | 3.2 | 4.8 | 0.00 | 0.00 | 0.00 | 43 | 1015.7 |
| 20260903171558 | 35 | 240 | 6.4 | 11.3 | 0.00 | 0.00 | 0.00 | 42 | 1015.6 |
| 20260903171054 | 34 | 68 | 1.6 | 3.2 | 0.00 | 0.00 | 0.00 | 44 | 1015.8 |
| 20260903170552 | 33 | 204 | 4.8 | 4.8 | 0.00 | 0.00 | 0.00 | 45 | 1015.7 |
| 20260903170048 | 34 | 352 | 8.0 | 12.9 | 0.00 | 0.00 | 0.00 | 45 | 1015.8 |
| 20260903165545 | 34 | 202 | 3.2 | 6.4 | 0.00 | 0.00 | 0.00 | 44 | 1016.0 |
| 20260903165040 | 33 | 172 | 9.7 | 12.9 | 0.00 | 0.00 | 0.00 | 45 | 1015.9 |
| 20260903164535 | 33 | 215 | 3.2 | 6.4 | 0.00 | 0.00 | 0.00 | 46 | 1015.9 |
| 20260903164031 | 33 | 120 | 8.0 | 9.7 | 0.00 | 0.00 | 0.00 | 46 | 1016.2 |
| 20260903163526 | 33 | 152 | 8.0 | 11.3 | 0.00 | 0.00 | 0.00 | 46 | 1015.9 |
| 20260903163022 | 33 | 202 | 8.0 | 9.7 | 0.00 | 0.00 | 0.00 | 46 | 1016.2 |
| 20260903162518 | 33 | 189 | 6.4 | 11.3 | 0.00 | 0.00 | 0.00 | 46 | 1016.1 |
| 20260903162013 | 32 | 198 | 11.3 | 14.5 | 0.00 | 0.00 | 0.00 | 47 | 1016.0 |
| 20260903161509 | 32 | 168 | 8.0 | 11.3 | 0.00 | 0.00 | 0.00 | 47 | 1016.0 |
| 20260903161005 | 32 | 162 | 9.7 | 11.3 | 0.00 | 0.00 | 0.00 | 47 | 1016.0 |
| 20260903160503 | 32 | 157 | 11.3 | 14.5 | 0.00 | 0.00 | 0.00 | 47 | 1016.1 |
| 20260903160003 | 32 | 272 | 9.7 | 12.9 | 0.00 | 0.00 | 0.00 | 48 | 1016.1 |
| 20260903155502 | 32 | 185 | 6.4 | 11.3 | 0.00 | 0.00 | 0.00 | 48 | 1016.2 |
| 20260903154958 | 31 | 234 | 6.4 | 6.4 | 0.00 | 0.00 | 0.00 | 51 | 1016.5 |
| 20260903154454 | 31 | 213 | 8.0 | 11.3 | 0.00 | 0.00 | 0.00 | 50 | 1016.2 |
| 20260903153949 | 32 | 189 | 16.1 | 16.1 | 0.00 | 0.00 | 0.00 | 49 | 1016.3 |
| 20260903153445 | 31 | 178 | 11.3 | 14.5 | 0.00 | 0.00 | 0.00 | 50 | 1016.3 |
| 20260903152941 | 31 | 162 | 11.3 | 16.1 | 0.00 | 0.00 | 0.00 | 50 | 1016.1 |
| 20260903152437 | 31 | 350 | 4.8 | 4.8 | 0.00 | 0.00 | 0.00 | 51 | 1016.3 |
| 20260903151933 | 31 | 185 | 9.7 | 11.3 | 0.00 | 0.00 | 0.00 | 51 | 1016.5 |
| 20260903151427 | 31 | 210 | 6.4 | 11.3 | 0.00 | 0.00 | 0.00 | 52 | 1016.2 |
| 20260903150922 | 31 | 210 | 9.7 | 11.3 | 0.00 | 0.00 | 0.00 | 52 | 1016.3 |
| 20260903150417 | 31 | 193 | 8.0 | 11.3 | 0.00 | 0.00 | 0.00 | 52 | 1016.2 |
| 20260903145917 | 31 | 194 | 6.4 | 9.7 | 0.00 | 0.00 | 0.00 | 52 | 1016.3 |
| 20260903145412 | 30 | 34 | 3.2 | 4.8 | 0.00 | 0.00 | 0.00 | 54 | 1016.4 |
| 20260903144912 | 30 | 195 | 11.3 | 16.1 | 0.00 | 0.00 | 0.00 | 53 | 1016.4 |
| 20260903144407 | 30 | 186 | 6.4 | 9.7 | 0.00 | 0.00 | 0.00 | 54 | 1016.4 |
| 20260903143902 | 30 | 147 | 16.1 | 20.9 | 0.00 | 0.00 | 0.00 | 55 | 1016.6 |
| 20260903143359 | 30 | 206 | 8.0 | 11.3 | 0.00 | 0.00 | 0.00 | 56 | 1016.1 |
| 20260903142859 | 30 | 157 | 9.7 | 14.5 | 0.00 | 0.00 | 0.00 | 57 | 1016.4 |
| 20260903142355 | 30 | 208 | 8.0 | 9.7 | 0.00 | 0.00 | 0.00 | 58 | 1016.5 |
| 20260903141851 | 30 | 178 | 8.0 | 12.9 | 0.00 | 0.00 | 0.00 | 58 | 1016.7 |
| 20260903141346 | 29 | 253 | 6.4 | 9.7 | 0.00 | 0.00 | 0.00 | 58 | 1016.5 |
| 20260903140841 | 29 | 142 | 11.3 | 14.5 | 0.00 | 0.00 | 0.00 | 59 | 1016.5 |
| 20260903140336 | 29 | 209 | 9.7 | 12.9 | 0.00 | 0.00 | 0.00 | 59 | 1016.5 |
| 20260903135832 | 28 | 238 | 6.4 | 6.4 | 0.00 | 0.00 | 0.00 | 60 | 1016.6 |
| 20260903135328 | 28 | 162 | 4.8 | 4.8 | 0.00 | 0.00 | 0.00 | 61 | 1016.6 |
| 20260903134826 | 28 | 325 | 6.4 | 11.3 | 0.00 | 0.00 | 0.00 | 61 | 1016.5 |
| 20260903134322 | 28 | 183 | 11.3 | 14.5 | 0.00 | 0.00 | 0.00 | 61 | 1016.5 |
| 20260903133820 | 28 | 198 | 11.3 | 12.9 | 0.00 | 0.00 | 0.00 | 62 | 1016.8 |
| 20260903133316 | 28 | 169 | 4.8 | 6.4 | 0.00 | 0.00 | 0.00 | 63 | 1016.8 |
| 20260903132816 | 27 | 213 | 6.4 | 9.7 | 0.00 | 0.00 | 0.00 | 64 | 1016.5 |
| 20260903132312 | 27 | 77 | 6.4 | 9.7 | 0.00 | 0.00 | 0.00 | 65 | 1016.6 |
| 20260903131806 | 27 | 201 | 4.8 | 6.4 | 0.00 | 0.00 | 0.00 | 65 | 1016.5 |
| 20260903131306 | 27 | 201 | 4.8 | 6.4 | 0.00 | 0.00 | 0.00 | 65 | 1016.4 |
| 20260903130800 | 27 | 60 | 3.2 | 4.8 | 0.00 | 0.00 | 0.00 | 66 | 1016.4 |
| 20260903130255 | 27 | 184 | 4.8 | 9.7 | 0.00 | 0.00 | 0.00 | 67 | 1016.7 |
| 20260903125753 | 27 | 194 | 8.0 | 9.7 | 0.00 | 0.00 | 0.00 | 67 | 1016.6 |
| 20260903125249 | 26 | 150 | 11.3 | 14.5 | 0.00 | 0.00 | 0.00 | 67 | 1016.7 |
| 20260903124748 | 26 | 61 | 6.4 | 4.8 | 0.00 | 0.00 | 0.00 | 67 | 1016.3 |
| 20260903124244 | 26 | 166 | 6.4 | 11.3 | 0.00 | 0.00 | 0.00 | 67 | 1016.4 |
| 20260903123742 | 26 | 62 | 3.2 | 3.2 | 0.00 | 0.00 | 0.00 | 68 | 1016.4 |
| 20260903123242 | 26 | 176 | 8.0 | 12.9 | 0.00 | 0.00 | 0.00 | 68 | 1016.4 |
| 20260903122741 | 26 | 248 | 3.2 | 4.8 | 0.00 | 0.00 | 0.00 | 68 | 1016.4 |
| 20260903122236 | 26 | 62 | 1.6 | 3.2 | 0.00 | 0.00 | 0.00 | 68 | 1016.2 |
| 20260903121734 | 26 | 71 | 3.2 | 4.8 | 0.00 | 0.00 | 0.00 | 69 | 1016.1 |
| 20260903121230 | 26 | 179 | 6.4 | 6.4 | 0.00 | 0.00 | 0.00 | 69 | 1016.2 |
| 20260903120730 | 26 | 54 | 3.2 | 3.2 | 0.00 | 0.00 | 0.00 | 69 | 1016.2 |
| 20260903120224 | 26 | 184 | 6.4 | 9.7 | 0.00 | 0.00 | 0.00 | 69 | 1016.1 |
| 20260903115723 | 26 | 148 | 3.2 | 4.8 | 0.00 | 0.00 | 0.00 | 68 | 1016.1 |
| 20260903115219 | 26 | 185 | 3.2 | 3.2 | 0.00 | 0.00 | 0.00 | 68 | 1016.0 |
| 20260903114713 | 26 | 94 | 3.2 | 4.8 | 0.00 | 0.00 | 0.00 | 68 | 1016.0 |
| 20260903114209 | 26 | 207 | 8.0 | 9.7 | 0.00 | 0.00 | 0.00 | 68 | 1015.9 |
| 20260903113708 | 26 | 210 | 3.2 | 4.8 | 0.00 | 0.00 | 0.00 | 67 | 1016.0 |
| 20260903113205 | 26 | 188 | 4.8 | 4.8 | 0.00 | 0.00 | 0.00 | 67 | 1016.1 |
| 20260903112701 | 26 | 92 | 4.8 | 6.4 | 0.00 | 0.00 | 0.00 | 66 | 1016.2 |
| 20260903112156 | 26 | 37 | 3.2 | 4.8 | 0.00 | 0.00 | 0.00 | 66 | 1015.9 |
| 20260903111654 | 26 | 165 | 8.0 | 11.3 | 0.00 | 0.00 | 0.00 | 66 | 1016.0 |
| 20260903111150 | 26 | 97 | 3.2 | 3.2 | 0.00 | 0.00 | 0.00 | 66 | 1016.1 |
| 20260903110646 | 27 | 213 | 9.7 | 14.5 | 0.00 | 0.00 | 0.00 | 65 | 1016.0 |
| 20260903110142 | 27 | 160 | 3.2 | 3.2 | 0.00 | 0.00 | 0.00 | 65 | 1016.0 |
| 20260903105636 | 27 | 210 | 6.4 | 6.4 | 0.00 | 0.00 | 0.00 | 65 | 1016.0 |
| 20260903105131 | 26 | 200 | 8.0 | 11.3 | 0.00 | 0.00 | 0.00 | 65 | 1015.8 |
| 20260903104631 | 26 | 122 | 6.4 | 11.3 | 0.00 | 0.00 | 0.00 | 66 | 1015.8 |
| 20260903104126 | 26 | 172 | 6.4 | 11.3 | 0.00 | 0.00 | 0.00 | 65 | 1015.9 |
| 20260903103622 | 26 | 110 | 3.2 | 3.2 | 0.00 | 0.00 | 0.00 | 65 | 1015.9 |
| 20260903103118 | 27 | 195 | 4.8 | 6.4 | 0.00 | 0.00 | 0.00 | 65 | 1015.8 |
| 20260903102613 | 27 | 205 | 6.4 | 11.3 | 0.00 | 0.00 | 0.00 | 65 | 1015.9 |
| 20260903102113 | 27 | 47 | 4.8 | 4.8 | 0.00 | 0.00 | 0.00 | 65 | 1015.9 |
| 20260903101613 | 27 | 134 | 4.8 | 6.4 | 0.00 | 0.00 | 0.00 | 65 | 1015.7 |
| 20260903101108 | 27 | 133 | 3.2 | 4.8 | 0.00 | 0.00 | 0.00 | 65 | 1015.8 |
| 20260903100609 | 27 | 144 | 9.7 | 12.9 | 0.00 | 0.00 | 0.00 | 64 | 1015.8 |
| 20260903100108 | 27 | 174 | 4.8 | 4.8 | 0.00 | 0.00 | 0.00 | 64 | 1015.6 |
| 20260903095605 | 27 | 154 | 4.8 | 6.4 | 0.00 | 0.00 | 0.00 | 64 | 1015.7 |
| 20260903095105 | 27 | 39 | 3.2 | 6.4 | 0.00 | 0.00 | 0.00 | 64 | 1015.7 |
| 20260903094606 | 27 | 231 | 4.8 | 4.8 | 0.00 | 0.00 | 0.00 | 64 | 1015.7 |
| 20260903094101 | 27 | 197 | 9.7 | 12.9 | 0.00 | 0.00 | 0.00 | 63 | 1015.6 |
| 20260903093556 | 27 | 100 | 4.8 | 4.8 | 0.00 | 0.00 | 0.00 | 63 | 1015.7 |
| 20260903093052 | 27 | 192 | 6.4 | 9.7 | 0.00 | 0.00 | 0.00 | 63 | 1015.6 |
| 20260903092551 | 27 | 203 | 6.4 | 6.4 | 0.00 | 0.00 | 0.00 | 63 | 1015.8 |
| 20260903092045 | 27 | 185 | 8.0 | 11.3 | 0.00 | 0.00 | 0.00 | 62 | 1015.6 |
| 20260903091544 | 27 | 30 | 1.6 | 1.6 | 0.00 | 0.00 | 0.00 | 62 | 1015.7 |
| 20260903091038 | 27 | 178 | 3.2 | 4.8 | 0.00 | 0.00 | 0.00 | 62 | 1015.7 |
| 20260903090535 | 27 | 40 | 3.2 | 3.2 | 0.00 | 0.00 | 0.00 | 61 | 1015.6 |
| 20260903090033 | 27 | 171 | 4.8 | 4.8 | 0.00 | 0.00 | 0.00 | 61 | 1015.6 |